Carlsbad, CA

1:36 AM PDT on April 23, 2018 (GMT -0700)
McClellan-Palomar

Weather History for KCRQ - May, 2013

Change the Weather History Date:

Friday, May 24, 2013

  Actual Average Record
Temperature  
Mean Temperature 62 °F -  
Max Temperature 66 °F 64 °F 73 °F (2006)
Min Temperature 59 °F 55 °F 51 °F (2008)
Degree Days  
Heating Degree Days 2    
Growing Degree Days 12 (Base 50)    
Moisture  
Dew Point 50 °F    
Average Humidity 63    
Maximum Humidity 72    
Minimum Humidity 52    
Precipitation  
Precipitation 0.00 in - - ()
Sea Level Pressure  
Sea Level Pressure 29.96 in    
Wind  
Wind Speed 5 mph (SSW)    
Max Wind Speed 12 mph    
Max Gust Speed 20 mph    
Visibility 10 miles    
Events      
Averages and records for this station are not official NWS values.
T = Trace of Precipitation, MM = Missing Value Source: NWS Daily Summary

Daily Weather History Graph

Daily Weather History Graph

Search for Another Location

Airport or City:

Astronomy

May. 24, 2013 Rise Set
Actual Time 5:43 AM PDT 7:48 PM PDT
Civil Twilight 5:16 AM PDT 8:16 PM PDT
Nautical Twilight 4:42 AM PDT 8:50 PM PDT
Astronomical Twilight 4:05 AM PDT 9:26 PM PDT
Moon 7:36 PM PDT (5/24) 5:17 AM PDT (5/24)
Length of Visible Light 15h 00m
Length of Day
14h 04m
Full, 100% of the Moon is Illuminated
May 24
Full
May 24
Full
May 31
Last Quarter
Jun 8
New
Jun 16
First Quarter

Hourly Weather History & Observations

Time (PDT) Temp. Dew Point Humidity Pressure Visibility Wind Dir Wind Speed Gust Speed Precip Events Conditions
12:36 AM 64.4 °F 48.2 °F 56% 29.94 in 10.0 mi SE 5.8 mph - N/A   Overcast
12:53 AM 64.0 °F 48.9 °F 58% 29.93 in 10.0 mi SE 4.6 mph - N/A   Overcast
1:53 AM 64.0 °F 48.9 °F 58% 29.92 in 10.0 mi Calm Calm - N/A   Overcast
2:37 AM 62.6 °F 51.8 °F 68% 29.92 in 10.0 mi SSW 3.5 mph - N/A   Overcast
2:53 AM 63.0 °F 51.1 °F 65% 29.91 in 10.0 mi South 3.5 mph - N/A   Overcast
3:08 AM 62.6 °F 50.0 °F 63% 29.92 in 10.0 mi South 4.6 mph - N/A   Overcast
3:53 AM 63.0 °F 48.9 °F 60% 29.91 in 10.0 mi South 3.5 mph - N/A   Overcast
4:53 AM 62.1 °F 48.9 °F 62% 29.93 in 10.0 mi Calm Calm - N/A   Overcast
5:53 AM 61.0 °F 48.9 °F 64% 29.94 in 9.0 mi Calm Calm - N/A   Overcast
6:53 AM 62.1 °F 48.0 °F 60% 29.96 in 10.0 mi Calm Calm - N/A   Overcast
7:53 AM 63.0 °F 46.9 °F 56% 29.96 in 10.0 mi SSE 5.8 mph - N/A   Scattered Clouds
8:53 AM 64.9 °F 46.9 °F 52% 29.97 in 10.0 mi West 3.5 mph - N/A   Scattered Clouds
9:32 AM 64.4 °F 51.8 °F 64% 29.98 in 9.0 mi SW 8.1 mph - N/A   Overcast
9:53 AM 64.9 °F 51.1 °F 61% 29.97 in 9.0 mi SW 8.1 mph - N/A   Scattered Clouds
10:00 AM 64.4 °F 51.8 °F 64% 29.98 in 9.0 mi WSW 9.2 mph - N/A   Overcast
10:53 AM 64.0 °F 51.1 °F 63% 29.99 in 9.0 mi WSW 10.4 mph - N/A   Overcast
11:53 AM 64.9 °F 51.1 °F 61% 29.99 in 9.0 mi SW 10.4 mph - N/A   Mostly Cloudy
12:53 PM 64.9 °F 51.1 °F 61% 29.99 in 9.0 mi SW 8.1 mph - N/A   Overcast
1:06 PM 64.4 °F 51.8 °F 64% 29.99 in 9.0 mi SW 9.2 mph - N/A   Scattered Clouds
1:53 PM 64.9 °F 50.0 °F 58% 29.98 in 9.0 mi SW 9.2 mph - N/A   Partly Cloudy
2:00 PM 66.2 °F 50.0 °F 56% 29.99 in 10.0 mi SSW 9.2 mph - N/A   Overcast
2:38 PM 64.4 °F 50.0 °F 59% 29.98 in 10.0 mi WSW 11.5 mph 16.1 mph N/A   Clear
2:53 PM 64.9 °F 50.0 °F 58% 29.98 in 10.0 mi WSW 9.2 mph - N/A   Clear
3:00 PM 64.4 °F 50.0 °F 59% 29.98 in 10.0 mi SSW 10.4 mph - N/A   Overcast
3:53 PM 66.0 °F 50.0 °F 56% 29.96 in 10.0 mi SW 9.2 mph 19.6 mph N/A   Overcast
4:53 PM 64.0 °F 50.0 °F 60% 29.95 in 10.0 mi WSW 9.2 mph - N/A   Mostly Cloudy
5:53 PM 64.0 °F 50.0 °F 60% 29.94 in 10.0 mi Variable 5.8 mph - N/A   Scattered Clouds
6:53 PM 63.0 °F 50.0 °F 63% 29.94 in 9.0 mi SW 5.8 mph - N/A   Scattered Clouds
7:18 PM 62.6 °F 50.0 °F 63% 29.94 in 9.0 mi SSW 5.8 mph - N/A   Mostly Cloudy
7:34 PM 60.8 °F 50.0 °F 68% 29.94 in 9.0 mi SW 5.8 mph - N/A   Scattered Clouds
7:53 PM 61.0 °F 50.0 °F 67% 29.95 in 9.0 mi WSW 5.8 mph - N/A   Scattered Clouds
8:00 PM 60.8 °F 50.0 °F 68% 29.95 in 9.0 mi SW 5.8 mph - N/A   Mostly Cloudy
8:50 PM 60.8 °F 50.0 °F 68% 29.96 in 10.0 mi SSW 3.5 mph - N/A   Clear
8:53 PM 61.0 °F 51.1 °F 70% 29.96 in 10.0 mi South 3.5 mph - N/A   Clear
9:00 PM 60.8 °F 51.8 °F 72% 29.96 in 10.0 mi South 3.5 mph - N/A   Overcast
9:32 PM 60.8 °F 51.8 °F 72% 29.98 in 9.0 mi SSE 3.5 mph - N/A   Partly Cloudy
9:53 PM 60.1 °F 51.1 °F 72% 29.98 in 9.0 mi SSE 3.5 mph - N/A   Partly Cloudy
10:53 PM 59.0 °F 50.0 °F 72% 29.99 in 9.0 mi SE 4.6 mph - N/A   Partly Cloudy
11:00 PM 59.0 °F 50.0 °F 72% 30.00 in 9.0 mi SE 3.5 mph - N/A   Overcast
11:53 PM 60.1 °F 51.1 °F 72% 30.00 in 9.0 mi SE 4.6 mph - N/A   Overcast